This is the latest recevied weather packets stored in our database for station/object DG4MJS-10. If no packets are shown the sender has not sent any weather packets the latest 10 day(s).
| Time | Temp. | Humidity | Pressure | Rain* | Wind** | Luminosity | Snow |
|---|---|---|---|---|---|---|---|
| 1787620459 | 18.33° C | 55% | 1011.3 hPa | - | - | - | - |
| 1787619559 | 18.89° C | 54% | 1011.3 hPa | - | - | - | - |
| 1787618658 | 18.33° C | 54% | 1011.1 hPa | - | - | - | - |
| 1787617758 | 18.89° C | 54% | 1010.9 hPa | - | - | - | - |
| 1787616858 | 18.89° C | 54% | 1010.8 hPa | - | - | - | - |
| 1787615958 | 18.89° C | 53% | 1011.3 hPa | - | - | - | - |
| 1787615058 | 18.89° C | 53% | 1011.5 hPa | - | - | - | - |
| 1787614158 | 18.89° C | 53% | 1011.8 hPa | - | - | - | - |
| 1787613258 | 18.89° C | 52% | 1012.3 hPa | - | - | - | - |
| 1787612358 | 19.44° C | 52% | 1012.6 hPa | - | - | - | - |
| 1787611458 | 18.89° C | 51% | 1012.9 hPa | - | - | - | - |
| 1787610558 | 19.44° C | 51% | 1012.8 hPa | - | - | - | - |
| 1787609660 | 19.44° C | 50% | 1013.2 hPa | - | - | - | - |
| 1787608760 | 19.44° C | 50% | 1013.5 hPa | - | - | - | - |
| 1787607860 | 19.44° C | 50% | 1013.2 hPa | - | - | - | - |
| 1787606960 | 19.44° C | 49% | 1013.3 hPa | - | - | - | - |
| 1787606059 | 20° C | 48% | 1013.6 hPa | - | - | - | - |
| 1787605159 | 20° C | 45% | 1013.8 hPa | - | - | - | - |
| 1787604259 | 20° C | 46% | 1014.1 hPa | - | - | - | - |
| 1787603359 | 20° C | 48% | 1014 hPa | - | - | - | - |
| 1787602459 | 20° C | 48% | 1014.1 hPa | - | - | - | - |
| 1787601559 | 20° C | 48% | 1014.3 hPa | - | - | - | - |
| 1787600659 | 20° C | 49% | 1014.5 hPa | - | - | - | - |
| 1787599759 | 20° C | 49% | 1014.8 hPa | - | - | - | - |
| 1787598859 | 20.56° C | 48% | 1014.9 hPa | - | - | - | - |
* Rain since midnight (hover to see other rain measurements)
** Current wind speed in m/s (hover to see current wind gust speed)